Preview of NWS' New Version of Forecast
This preview is not operational and should not be used for support decisions.

Regional Weather Roundup (RWR)

Issued by Philadelphia/Mt Holly (PHI)

                            
000
ASUS41 KPHI 181112
RWRPHI

REGIONAL WEATHER ROUNDUP
NATIONAL WEATHER SERVICE MOUNT HOLLY NJ
700 AM EDT WED SEP 18 2019

NOTE:  "FAIR" INDICATES FEW OR NO CLOUDS BELOW 12,000 FEET WITH NO
SIGNIFICANT WEATHER AND/OR OBSTRUCTIONS TO VISIBILITY.

 * = STATION DOES NOT REPORT PRECIPITATION (E.G. RAIN, SNOW, ETC.) 
        OR FOG.

NJZ015>026-181200-
SOUTHERN NEW JERSEY
  
CITY           SKY/WX    TMP DP  RH WIND       PRES   REMARKS
POMONA         FAIR      53  49  86 CALM      30.18R                  
WILDWOOD*      FAIR      57  53  86 N6        30.17R                  
MILLVILLE      FAIR      53  50  89 N3        30.18R                  
WRIGHTSTOWN    FAIR      52  48  87 N5        30.19R                  
MOUNT HOLLY    FAIR      52  50  93 CALM      30.19R                  
TRENTON        FAIR      54  47  77 N7        30.20R                  

$$
NJZ001>014-181200-
NORTHERN NEW JERSEY
  
CITY           SKY/WX    TMP DP  RH WIND       PRES   REMARKS
SUSSEX         FAIR      45  43  93 CALM      30.24R                  
ANDOVER*         N/A     49  47  93 CALM      30.24R                  
MORRISTOWN     PTCLDY    48  48 100 CALM      30.22R                  
NEWARK         MOCLDY    58  48  69 N13       30.21R                  
TETERBORO      MOCLDY    57  48  72 N7        30.21R                  
CALDWELL       FAIR      55  48  77 VRB3      30.23R                  
SOMERVILLE     FAIR      52  48  86 MISG      30.20R                  
ALLAIRE*       MOCLDY    59  56  89 N7        30.20R                  
TOMS RIVER*    MOCLDY   N/A N/A N/A CALM      30.19R                  

$$
PAZ043-044-047-054-055-060>062-066>071-181200-
EASTERN PENNSYLVANIA
  
CITY           SKY/WX    TMP DP  RH WIND       PRES   REMARKS
PHILADELPHIA   FAIR      58  49  72 N5        30.19R                  
NORTH PHILA    FAIR      56  46  69 NE3       30.21R                  
BLUE BELL*     FAIR      48  47  97 CALM      30.21R                  
DOYLESTOWN     FAIR      53  46  77 NE5       30.20R                  
QUAKERTOWN*    CLEAR     48  48 100 CALM      30.22R                  
PERKASIE*      FAIR      46  46 100 CALM      30.22R                  
POTTSTOWN      FAIR      48  47  96 CALM      30.23R                  
LANCASTER      FAIR      54  46  74 E3        30.20R                  
COATESVILLE    FAIR      54  48  82 N5        30.21R                  
WEST CHESTER   FAIR      54  46  76 CALM      30.20R                  
READING        FAIR      54  49  83 N5        30.20R                  
ALLENTOWN      FAIR      50  45  83 CALM      30.22R                  
QN CITY/ALNTWN FAIR      54  46  76 CALM      30.23R                  
MOUNT POCONO   FAIR      45  43  93 N8        30.24R                  
HAZLETON       FAIR      41  39  93 CALM      30.26S                  
LEHIGHTON      FAIR      39  39 100 CALM      30.25R                  
WILKES BARRE   FAIR      48  44  86 E6        30.25R                  

$$
DEZALL-MDZ008-012-015-019-020-181200-
DELAWARE AND EASTERN MARYLAND
  
CITY           SKY/WX    TMP DP  RH WIND       PRES   REMARKS
WILMINGTON     FAIR      54  52  93 N6        30.19R                  
DOVER          FAIR      55  52  92 N6        30.17R                  
CHESWOLD       SUNNY     52  52 100 CALM      30.18R                  
GEORGETOWN     FAIR      54  52  93 CALM      30.17R                  
EASTON         CLEAR     55  54  94 CALM      30.20R                  
STEVENSVILLE   FAIR      57  57 100 CALM      30.17R                  
ABERDEEN       CLEAR     50  50 100 CALM      30.19R                  
PATUXENT       FAIR      64  54  69 NE6       30.15R                  
OCEAN CITY     FAIR      67  52  58 NE10G18   30.14R                  
WALLOPS ISLAND FAIR      57  53  86 N9        30.14R                  
CAMBRIDGE      CLEAR     54  52  94 CALM      30.17R                  
SALISBURY      FAIR      55  51  86 NW3       30.15R                  

$$
PAZ001-021-NYZ056-072-MDZ011-DCZ001-181200-
OTHER NEARBY LOCATIONS
  
CITY           SKY/WX    TMP DP  RH WIND       PRES   REMARKS
HARRISBURG     FAIR      57  47  69 N3        30.20R                  
STATE COLLEGE  CLEAR     48  48 100 E3        30.24R                  
WILLIAMSPORT   FAIR      50  47  89 CALM      30.24R                  
BINGHAMTON     FAIR      46  42  86 NE7       30.27R                  
NEW YORK CITY  CLOUDY    60  50  69 VRB6      30.25R                  
BALTIMORE      FAIR      60  56  86 CALM      30.17R                  
WASHINGTON DC  FAIR      63  59  87 NE5       30.18R                  

$$